When you browse on this site, cookies collect data to enhance your experience and personalize the content and advertising you see.
Visit our Privacy Policy to learn more. By continuing to use the site, you agree to this use of cookies and data.
  • en Suisse
  • Liste des pays
  • À 7 jours
  • Température de l'eau
  • Carte satellitaire
  • Carte météo
  • Widgets météo
  • user-avatar
    Se connecter

    Météo par heure à Ísafjörður

    Ce jour, 12 Décembre, Mercredi

    Heure Température Précipitation Vent Pression Humidité
    00:00 -1°C° 0 mm 8 m/s 720 mmHg 85%
    01:00 -1°C° 0 mm 9 m/s 720 mmHg 84%
    02:00 -1°C° 0.1 mm 8 m/s 720 mmHg 85%
    03:00 -1°C° 0.1 mm 8 m/s 721 mmHg 85%
    04:00 -1°C° 0 mm 7 m/s 721 mmHg 86%
    05:00 -1°C° 0.1 mm 8 m/s 721 mmHg 87%
    06:00 -1°C° 0.1 mm 8 m/s 722 mmHg 88%
    07:00 0°C° 0.1 mm 8 m/s 723 mmHg 88%
    08:00 0°C° 0.1 mm 8 m/s 724 mmHg 88%
    09:00 -1°C° 0.1 mm 8 m/s 725 mmHg 88%
    10:00 -1°C° 0.1 mm 8 m/s 726 mmHg 87%
    11:00 -1°C° 0 mm 7 m/s 727 mmHg 87%
    12:00 -1°C° 0 mm 6 m/s 727 mmHg 87%
    13:00 -1°C° 0 mm 5 m/s 728 mmHg 88%
    14:00 -1°C° 0 mm 5 m/s 729 mmHg 87%
    15:00 -1°C° 0 mm 4 m/s 729 mmHg 87%
    16:00 -1°C° 0 mm 4 m/s 729 mmHg 87%
    17:00 0°C° 0.1 mm 4 m/s 730 mmHg 86%
    18:00 0°C° 0.1 mm 4 m/s 730 mmHg 85%
    19:00 0°C° 0.1 mm 4 m/s 730 mmHg 84%
    20:00 0°C° 0 mm 4 m/s 730 mmHg 83%
    21:00 0°C° 0 mm 4 m/s 730 mmHg 82%
    22:00 +1°C° 0 mm 4 m/s 730 mmHg 80%
    23:00 0°C° 0 mm 4 m/s 729 mmHg 80%

    Demain, 13 Décembre, Jeudi

    Heure Température Précipitation Vent Pression Humidité
    00:00 0°C° 0 mm 5 m/s 729 mmHg 80%
    01:00 0°C° 0 mm 5 m/s 729 mmHg 80%
    02:00 0°C° 0 mm 5 m/s 728 mmHg 78%
    03:00 -1°C° 0 mm 6 m/s 728 mmHg 77%
    04:00 -1°C° 0 mm 6 m/s 727 mmHg 75%
    05:00 -1°C° 0 mm 6 m/s 726 mmHg 75%
    06:00 -1°C° 0 mm 6 m/s 726 mmHg 74%
    07:00 +1°C° 0 mm 6 m/s 725 mmHg 74%
    08:00 0°C° 0.2 mm 7 m/s 724 mmHg 76%
    09:00 0°C° 0.2 mm 7 m/s 723 mmHg 78%
    10:00 0°C° 0.2 mm 8 m/s 723 mmHg 81%
    11:00 0°C° 0.3 mm 8 m/s 722 mmHg 84%
    12:00 0°C° 0.3 mm 8 m/s 721 mmHg 87%
    13:00 0°C° 0.3 mm 8 m/s 720 mmHg 90%
    14:00 0°C° 0.5 mm 7 m/s 719 mmHg 90%
    15:00 0°C° 0.5 mm 7 m/s 719 mmHg 91%
    16:00 0°C° 0.5 mm 7 m/s 718 mmHg 91%
    17:00 0°C° 0.1 mm 7 m/s 717 mmHg 90%
    18:00 0°C° 0.1 mm 7 m/s 716 mmHg 89%
    19:00 0°C° 0.1 mm 7 m/s 714 mmHg 89%
    20:00 +1°C° 0.4 mm 6 m/s 714 mmHg 90%
    21:00 +1°C° 0.4 mm 6 m/s 713 mmHg 91%
    22:00 +1°C° 0.4 mm 5 m/s 712 mmHg 93%
    23:00 0°C° 0.6 mm 7 m/s 714 mmHg 93%

    Après-demain, 14 Décembre, Vendredi

    Heure Température Précipitation Vent Pression Humidité
    00:00 0°C° 0.6 mm 8 m/s 715 mmHg 94%
    01:00 0°C° 0.6 mm 10 m/s 716 mmHg 95%
    02:00 -1°C° 0.6 mm 11 m/s 717 mmHg 91%
    03:00 -2°C° 0.6 mm 13 m/s 719 mmHg 88%
    04:00 -2°C° 0.6 mm 14 m/s 721 mmHg 84%
    05:00 -4°C° 0 mm 13 m/s 722 mmHg 81%
    06:00 -3°C° 0 mm 12 m/s 723 mmHg 78%
    07:00 -3°C° 0 mm 11 m/s 724 mmHg 75%
    08:00 -4°C° 0 mm 9 m/s 724 mmHg 77%
    09:00 -3°C° 0 mm 7 m/s 725 mmHg 79%
    10:00 -2°C° 0 mm 5 m/s 726 mmHg 81%
    11:00 -2°C° 0 mm 4 m/s 725 mmHg 81%
    12:00 -2°C° 0 mm 4 m/s 725 mmHg 82%
    13:00 -1°C° 0 mm 3 m/s 725 mmHg 83%
    14:00 -2°C° 0 mm 4 m/s 724 mmHg 83%
    15:00 -3°C° 0 mm 6 m/s 724 mmHg 83%
    16:00 -3°C° 0 mm 7 m/s 723 mmHg 83%
    17:00 -2°C° 0 mm 8 m/s 722 mmHg 81%
    18:00 -3°C° 0 mm 9 m/s 721 mmHg 80%
    19:00 -2°C° 0 mm 10 m/s 720 mmHg 79%
    20:00 -2°C° 0.2 mm 10 m/s 719 mmHg 82%
    21:00 -2°C° 0.2 mm 10 m/s 718 mmHg 85%
    22:00 -2°C° 0.2 mm 10 m/s 717 mmHg 88%
    23:00 -1°C° 0.1 mm 9 m/s 716 mmHg 87%

    15 Décembre, Samedi

    Heure Température Précipitation Vent Pression Humidité
    00:00 -1°C° 0.1 mm 8 m/s 715 mmHg 87%
    01:00 -1°C° 0.1 mm 6 m/s 714 mmHg 86%
    02:00 -1°C° 0.2 mm 7 m/s 714 mmHg 86%
    03:00 0°C° 0.2 mm 7 m/s 714 mmHg 87%
    04:00 0°C° 0.2 mm 7 m/s 714 mmHg 87%
    05:00 +1°C° 0.2 mm 6 m/s 715 mmHg 87%
    06:00 -1°C° 0.2 mm 6 m/s 715 mmHg 87%
    07:00 0°C° 0.2 mm 5 m/s 716 mmHg 87%
    08:00 0°C° 0 mm 5 m/s 717 mmHg 85%
    09:00 0°C° 0 mm 5 m/s 717 mmHg 84%
    10:00 -1°C° 0 mm 5 m/s 718 mmHg 83%
    11:00 -1°C° 0.1 mm 6 m/s 718 mmHg 82%
    12:00 -1°C° 0.1 mm 6 m/s 719 mmHg 82%
    13:00 -1°C° 0.1 mm 7 m/s 719 mmHg 81%
    14:00 -1°C° 0.1 mm 6 m/s 720 mmHg 81%
    15:00 -1°C° 0.1 mm 6 m/s 720 mmHg 81%
    16:00 -1°C° 0.1 mm 5 m/s 721 mmHg 81%
    17:00 -1°C° 0 mm 5 m/s 722 mmHg 81%
    18:00 -1°C° 0 mm 5 m/s 723 mmHg 81%
    19:00 -1°C° 0 mm 5 m/s 723 mmHg 82%
    20:00 -2°C° 0 mm 6 m/s 724 mmHg 81%
    21:00 -2°C° 0 mm 7 m/s 724 mmHg 79%
    22:00 -2°C° 0 mm 8 m/s 724 mmHg 78%
    23:00 -2°C° 0 mm 11 m/s 724 mmHg 82%

    16 Décembre, Dimanche

    Heure Température Précipitation Vent Pression Humidité
    00:00 -2°C° 0 mm 13 m/s 724 mmHg 85%
    01:00 -3°C° 0 mm 15 m/s 723 mmHg 88%
    02:00 -3°C° 0.2 mm 16 m/s 723 mmHg 89%
    03:00 -3°C° 0.2 mm 16 m/s 722 mmHg 90%
    04:00 -3°C° 0.2 mm 17 m/s 722 mmHg 91%
    05:00 -3°C° 0.5 mm 18 m/s 721 mmHg 91%
    06:00 -3°C° 0.5 mm 18 m/s 720 mmHg 91%
    07:00 -4°C° 0.5 mm 18 m/s 720 mmHg 91%
    08:00 -3°C° 0.8 mm 19 m/s 719 mmHg 91%
    09:00 -3°C° 0.8 mm 19 m/s 719 mmHg 91%
    10:00 -3°C° 0.8 mm 19 m/s 718 mmHg 91%
    11:00 -3°C° 0.8 mm 19 m/s 718 mmHg 91%
    12:00 -3°C° 0.8 mm 19 m/s 717 mmHg 91%
    13:00 -3°C° 0.8 mm 19 m/s 716 mmHg 92%
    14:00 -3°C° 1.1 mm 18 m/s 716 mmHg 92%
    15:00 -3°C° 1.1 mm 18 m/s 715 mmHg 92%
    16:00 -3°C° 1.1 mm 18 m/s 715 mmHg 93%
    17:00 -3°C° 1.1 mm 16 m/s 715 mmHg 93%
    18:00 -3°C° 1.1 mm 15 m/s 715 mmHg 94%
    19:00 -2°C° 1.1 mm 14 m/s 715 mmHg 95%
    20:00 -2°C° 0.6 mm 12 m/s 715 mmHg 94%
    21:00 -2°C° 0.6 mm 10 m/s 716 mmHg 94%
    22:00 -1°C° 0.6 mm 8 m/s 716 mmHg 93%
    23:00 -2°C° 0.1 mm 7 m/s 716 mmHg 91%

    17 Décembre, Lundi

    Heure Température Précipitation Vent Pression Humidité
    00:00 -1°C° 0.1 mm 5 m/s 717 mmHg 88%
    01:00 -2°C° 0.1 mm 4 m/s 717 mmHg 85%
    02:00 -1°C° 0 mm 5 m/s 717 mmHg 84%
    03:00 -1°C° 0 mm 5 m/s 718 mmHg 83%
    04:00 -1°C° 0 mm 6 m/s 718 mmHg 83%
    05:00 -1°C° 0.1 mm 6 m/s 718 mmHg 80%
    06:00 -1°C° 0.1 mm 6 m/s 719 mmHg 78%
    07:00 -1°C° 0.1 mm 7 m/s 719 mmHg 76%
    08:00 -1°C° 0.1 mm 6 m/s 720 mmHg 76%
    09:00 -1°C° 0.1 mm 6 m/s 721 mmHg 76%
    10:00 +1°C° 0.1 mm 6 m/s 721 mmHg 77%
    11:00 0°C° 0 mm 5 m/s 722 mmHg 77%
    12:00 0°C° 0 mm 5 m/s 722 mmHg 77%
    13:00 0°C° 0 mm 5 m/s 723 mmHg 77%
    14:00 0°C° 0 mm 4 m/s 724 mmHg 77%
    15:00 0°C° 0 mm 4 m/s 724 mmHg 77%
    16:00 0°C° 0 mm 4 m/s 725 mmHg 78%
    17:00 0°C° 0.1 mm 4 m/s 725 mmHg 78%
    18:00 0°C° 0.1 mm 4 m/s 726 mmHg 79%
    19:00 0°C° 0.1 mm 4 m/s 726 mmHg 80%
    20:00 -1°C° 0 mm 4 m/s 726 mmHg 80%
    21:00 -1°C° 0 mm 4 m/s 726 mmHg 81%
    22:00 -1°C° 0 mm 4 m/s 727 mmHg 81%
    23:00 -1°C° 0 mm 4 m/s 727 mmHg 82%
    Voir plus